Location: Fort Worth, Tx
(32.7431°N, 97.3695°W)
Time: 14:23:29
(UTC-04:00)

Transit 2A - Pass Details

Date: 26 February 2024
Orbit: 596 x 956 km, 66.7° (Epoch: 20 April)

Event Time Altitude Azimuth Distance (km) Brightness Sun altitude
Exits shadow 06:16:49 24° 334° (NNW) 1,495 7.3 -22.7°
Maximum altitude 06:19:58 90° 264° (W) 782 5.9 -22.1°
Drops below altitude 10° 06:25:36 10° 156° (SSE) 2,446 8.9 -20.9°
Sets 06:28:10 0° 156° (SSE) 3,432 9.7 -20.3°
